Location: Newark
(15.4608°S, 41.1635°W)
Time: 19:12:07
(UTC+00:00)

Transit 4A - Visible Passes

Search period start: 04 March 2021 00:00
Search period end: 14 March 2021 00:00
Orbit: 866 x 978 km, 66.8° (Epoch: 04 March)

Date Brightness Start Highest point End Pass type
(mag) Time Alt. Az. Time Alt. Az. Time Alt. Az.
06 Mar 9.6 22:37:53 10° N 22:38:56 15° N 22:38:56 15° N visible
07 Mar 7.9 22:46:43 10° NNW 22:51:15 54° NNE 22:51:15 54° NNE visible
08 Mar 7.9 22:55:57 10° NNW 23:01:41 70° WSW 23:07:31 10° SSE visible
09 Mar 11.1 08:15:46 10° SE 08:18:11 12° ESE 08:20:37 10° E visible
09 Mar 9.2 21:21:43 10° NE 21:25:06 16° ENE 21:28:29 10° ESE visible
09 Mar 8.9 23:05:36 10° NW 23:11:00 41° WSW 23:16:29 10° S visible
10 Mar 10.7 08:23:04 10° SSE 08:27:41 21° ESE 08:32:19 10° ENE visible
10 Mar 8.6 21:29:25 10° NNE 21:34:15 28° ENE 21:39:07 10° SE visible
10 Mar 9.8 23:15:46 10° WNW 23:20:22 24° WSW 23:25:02 10° SSW visible
11 Mar 8.0 21:37:54 10° N 21:43:26 48° ENE 21:49:01 10° SE visible
11 Mar 10.5 23:26:49 10° W 23:29:49 14° WSW 23:32:51 10° SSW visible
12 Mar 7.7 21:46:52 10° NNW 21:52:39 83° ENE 21:58:31 10° SSE visible
13 Mar 8.4 21:56:16 10° NNW 22:01:55 58° WSW 22:07:41 10° S visible
